DKH1920 ZGHA-ZGGG

Flight info

Callsign DKH1920
Flight time 0h 59m
Altitude 36100
Route UBM7W UBMOG W615 IDAXI R473 BEMAG V5 ENVIP ENVIP8
Aircraft A321/M-SDE3FGHIRWY/LB1

Departure

Time 2026-04-26 04:10
Airport Changsha Huanghua International Airport (ZGHA)

Arrival

Time 2026-04-26 05:10
Airport Guangzhou Baiyun International Airport (ZGGG)
Time Latitude Longitude Altitude Speed Heading
2026-04-26 03:37 28.19096 113.21536 214 ft 0 kts 186°
2026-04-26 04:00 28.19117 113.21539 217 ft 4 kts 190°
2026-04-26 04:00 28.19143 113.21545 217 ft 4 kts 199°
2026-04-26 04:00 28.19163 113.21554 215 ft 0 kts 201°
2026-04-26 04:05 28.19156 113.21552 215 ft 2 kts 195°
2026-04-26 04:05 28.19146 113.21561 221 ft 3 kts 121°
2026-04-26 04:05 28.19150 113.21590 215 ft 5 kts 80°
2026-04-26 04:06 28.19155 113.21648 214 ft 10 kts 85°
2026-04-26 04:06 28.19160 113.21730 214 ft 11 kts 85°
2026-04-26 04:06 28.19216 113.21771 217 ft 12 kts 359°
2026-04-26 04:06 28.19302 113.21766 217 ft 13 kts 357°
2026-04-26 04:07 28.19403 113.21759 218 ft 16 kts 357°
2026-04-26 04:07 28.19519 113.21753 218 ft 18 kts 357°
2026-04-26 04:07 28.19650 113.21744 218 ft 20 kts 356°
2026-04-26 04:07 28.19797 113.21735 218 ft 22 kts 357°
2026-04-26 04:08 28.19957 113.21725 214 ft 24 kts 357°
2026-04-26 04:08 28.20128 113.21716 214 ft 25 kts 357°
2026-04-26 04:08 28.20303 113.21706 214 ft 25 kts 357°
2026-04-26 04:08 28.20481 113.21693 217 ft 26 kts 356°
2026-04-26 04:09 28.20636 113.21743 218 ft 24 kts 69°
2026-04-26 04:09 28.20598 113.21873 216 ft 13 kts 148°
2026-04-26 04:09 28.20508 113.21887 216 ft 14 kts 183°
2026-04-26 04:09 28.20405 113.21884 220 ft 19 kts 178°
2026-04-26 04:10 28.20123 113.21903 215 ft 74 kts 177°
2026-04-26 04:10 28.19377 113.21948 222 ft 137 kts 177°
2026-04-26 04:10 28.18260 113.22013 356 ft 174 kts 177°
2026-04-26 04:10 28.17051 113.22083 990 ft 175 kts 176°
2026-04-26 04:11 28.16245 113.22131 1531 ft 174 kts 177°
2026-04-26 04:11 28.15009 113.22202 2044 ft 188 kts 177°
2026-04-26 04:11 28.13631 113.22285 2306 ft 209 kts 178°
2026-04-26 04:11 28.12148 113.22366 2877 ft 216 kts 178°
2026-04-26 04:12 28.10645 113.22464 3692 ft 214 kts 175°
2026-04-26 04:12 28.09257 113.23061 4427 ft 221 kts 140°
2026-04-26 04:12 28.08492 113.24577 5057 ft 232 kts 102°
2026-04-26 04:12 28.08310 113.26402 5738 ft 235 kts 97°
2026-04-26 04:13 28.08203 113.28262 6468 ft 238 kts 96°
2026-04-26 04:13 28.08110 113.30148 7134 ft 242 kts 95°
2026-04-26 04:13 28.08012 113.32069 7769 ft 247 kts 95°
2026-04-26 04:13 28.07902 113.34058 8228 ft 263 kts 94°
2026-04-26 04:14 28.07773 113.36213 8445 ft 286 kts 94°
2026-04-26 04:14 28.07625 113.38517 8870 ft 299 kts 94°
2026-04-26 04:14 28.07468 113.40886 9506 ft 305 kts 93°
2026-04-26 04:14 28.07308 113.43297 10146 ft 310 kts 92°
2026-04-26 04:15 28.07134 113.45808 10357 ft 332 kts 94°
2026-04-26 04:15 28.06867 113.48494 10492 ft 354 kts 96°
2026-04-26 04:15 28.06528 113.51299 10906 ft 364 kts 97°
2026-04-26 04:15 28.06155 113.54154 11478 ft 369 kts 98°
2026-04-26 04:16 28.05773 113.57038 12064 ft 373 kts 97°
2026-04-26 04:16 28.05395 113.59960 12674 ft 377 kts 97°
2026-04-26 04:16 28.04971 113.62907 13260 ft 381 kts 104°
2026-04-26 04:16 28.03906 113.65659 13818 ft 385 kts 125°
2026-04-26 04:17 28.02081 113.67855 14331 ft 385 kts 146°
2026-04-26 04:17 27.99716 113.69232 14847 ft 383 kts 166°
2026-04-26 04:17 27.97104 113.69636 15427 ft 376 kts 186°
2026-04-26 04:17 27.94510 113.69410 16155 ft 372 kts 188°
2026-04-26 04:18 27.91937 113.69169 16883 ft 370 kts 188°
2026-04-26 04:18 27.89369 113.68936 17514 ft 370 kts 188°
2026-04-26 04:18 27.86797 113.68709 18106 ft 372 kts 188°
2026-04-26 04:18 27.84205 113.68481 18575 ft 375 kts 188°
2026-04-26 04:19 27.81593 113.68249 19036 ft 378 kts 188°
2026-04-26 04:19 27.78963 113.68014 19497 ft 380 kts 188°
2026-04-26 04:19 27.76314 113.67776 19968 ft 384 kts 188°
2026-04-26 04:19 27.73645 113.67539 20446 ft 386 kts 188°
2026-04-26 04:20 27.70957 113.67304 20931 ft 389 kts 188°
2026-04-26 04:20 27.68287 113.67071 21406 ft 391 kts 188°
2026-04-26 04:20 27.65566 113.66835 21906 ft 393 kts 188°
2026-04-26 04:20 27.63209 113.66748 22346 ft 398 kts 182°
2026-04-26 04:21 27.60434 113.66829 22865 ft 400 kts 182°
2026-04-26 04:21 27.57645 113.66905 23392 ft 401 kts 182°
2026-04-26 04:21 27.54853 113.66975 23864 ft 402 kts 183°
2026-04-26 04:21 27.52052 113.67042 24313 ft 403 kts 183°
2026-04-26 04:22 27.49241 113.67112 24768 ft 404 kts 183°
2026-04-26 04:22 27.46427 113.67190 25231 ft 405 kts 182°
2026-04-26 04:22 27.43609 113.67501 25701 ft 409 kts 176°
2026-04-26 04:22 27.40790 113.67958 26164 ft 409 kts 176°
2026-04-26 04:23 27.37970 113.68415 26564 ft 411 kts 176°
2026-04-26 04:23 27.35124 113.68873 26935 ft 415 kts 176°
2026-04-26 04:23 27.32236 113.69334 27107 ft 424 kts 175°
2026-04-26 04:23 27.29281 113.69803 27235 ft 434 kts 175°
2026-04-26 04:24 27.26265 113.70282 27366 ft 442 kts 175°
2026-04-26 04:24 27.23229 113.70767 27494 ft 450 kts 175°
2026-04-26 04:24 27.20102 113.71268 27621 ft 458 kts 175°
2026-04-26 04:24 27.16919 113.71775 27788 ft 465 kts 175°
2026-04-26 04:25 27.13699 113.72287 28061 ft 468 kts 175°
2026-04-26 04:25 27.10466 113.72803 28417 ft 471 kts 175°
2026-04-26 04:25 27.07218 113.73322 28746 ft 473 kts 175°
2026-04-26 04:25 27.03946 113.73844 29056 ft 476 kts 175°
2026-04-26 04:26 27.00664 113.74369 29362 ft 478 kts 175°
2026-04-26 04:26 26.97361 113.74898 29666 ft 480 kts 175°
2026-04-26 04:26 26.94052 113.75431 30002 ft 482 kts 175°
2026-04-26 04:26 26.90715 113.75967 30171 ft 487 kts 175°
2026-04-26 04:27 26.87349 113.76505 30380 ft 490 kts 175°
2026-04-26 04:27 26.83969 113.77041 30596 ft 492 kts 175°
2026-04-26 04:27 26.80572 113.77578 30883 ft 493 kts 176°
2026-04-26 04:27 26.77168 113.78113 31072 ft 494 kts 176°
2026-04-26 04:28 26.73772 113.78746 31113 ft 497 kts 170°
2026-04-26 04:28 26.67094 113.80819 31108 ft 498 kts 168°
2026-04-26 04:29 26.60418 113.82913 31104 ft 498 kts 168°
2026-04-26 04:29 26.53797 113.84989 31118 ft 496 kts 167°
2026-04-26 04:30 26.47158 113.87047 31106 ft 495 kts 168°
2026-04-26 04:30 26.40493 113.88974 31126 ft 494 kts 169°
2026-04-26 04:31 26.33831 113.90847 31126 ft 490 kts 169°
2026-04-26 04:31 26.30573 113.91776 31133 ft 477 kts 169°
2026-04-26 04:31 26.27372 113.92699 31137 ft 473 kts 169°
2026-04-26 04:32 26.21015 113.94539 31125 ft 472 kts 169°
2026-04-26 04:32 26.14663 113.96375 31127 ft 471 kts 169°
2026-04-26 04:33 26.08314 113.98205 31139 ft 471 kts 169°
2026-04-26 04:33 26.01916 113.99571 31129 ft 464 kts 181°
2026-04-26 04:34 25.95605 113.99015 31131 ft 456 kts 193°
2026-04-26 04:34 25.89339 113.97925 31147 ft 455 kts 193°
2026-04-26 04:35 25.83082 113.96845 31149 ft 454 kts 193°
2026-04-26 04:35 25.76845 113.95765 31155 ft 453 kts 193°
2026-04-26 04:36 25.70617 113.94689 31155 ft 453 kts 193°
2026-04-26 04:36 25.64393 113.93624 31139 ft 452 kts 193°
2026-04-26 04:37 25.58170 113.92554 31139 ft 453 kts 193°
2026-04-26 04:37 25.51942 113.91479 31142 ft 453 kts 193°
2026-04-26 04:38 25.45714 113.90409 31142 ft 453 kts 193°
2026-04-26 04:38 25.39485 113.89340 31122 ft 453 kts 193°
2026-04-26 04:38 25.36388 113.88809 30923 ft 446 kts 192°
2026-04-26 04:39 25.33375 113.88295 30693 ft 441 kts 192°
2026-04-26 04:39 25.30359 113.87780 30457 ft 438 kts 192°
2026-04-26 04:39 25.27358 113.87267 30225 ft 435 kts 192°
2026-04-26 04:39 25.24377 113.86756 29976 ft 432 kts 192°
2026-04-26 04:40 25.21413 113.86246 29699 ft 430 kts 192°
2026-04-26 04:40 25.18464 113.85740 29430 ft 428 kts 192°
2026-04-26 04:40 25.15528 113.85238 29164 ft 426 kts 192°
2026-04-26 04:40 25.12605 113.84738 28884 ft 425 kts 192°
2026-04-26 04:41 25.09690 113.84239 28620 ft 424 kts 192°
2026-04-26 04:41 25.06784 113.83742 28361 ft 422 kts 192°
2026-04-26 04:41 25.03894 113.83249 28104 ft 420 kts 192°
2026-04-26 04:41 25.01013 113.82758 27844 ft 418 kts 192°
2026-04-26 04:42 24.98148 113.82270 27591 ft 416 kts 192°
2026-04-26 04:42 24.95294 113.81786 27342 ft 414 kts 192°
2026-04-26 04:42 24.92457 113.81306 27098 ft 412 kts 192°
2026-04-26 04:42 24.89629 113.80828 26849 ft 410 kts 192°
2026-04-26 04:43 24.86816 113.80353 26594 ft 408 kts 192°
2026-04-26 04:43 24.84012 113.79879 26352 ft 406 kts 192°
2026-04-26 04:43 24.81221 113.79405 26111 ft 405 kts 192°
2026-04-26 04:43 24.78446 113.78931 25874 ft 403 kts 192°
2026-04-26 04:44 24.75716 113.78462 25644 ft 401 kts 192°
2026-04-26 04:44 24.72963 113.77991 25410 ft 400 kts 192°
2026-04-26 04:44 24.70218 113.77524 25178 ft 398 kts 192°
2026-04-26 04:44 24.67482 113.77059 24948 ft 397 kts 192°
2026-04-26 04:45 24.64800 113.76607 24720 ft 395 kts 192°
2026-04-26 04:45 24.62089 113.76149 24494 ft 393 kts 192°
2026-04-26 04:45 24.59393 113.75693 24274 ft 392 kts 193°
2026-04-26 04:45 24.56702 113.75237 24048 ft 391 kts 192°
2026-04-26 04:46 24.54024 113.74785 23824 ft 388 kts 192°
2026-04-26 04:46 24.51359 113.74340 23598 ft 386 kts 192°
2026-04-26 04:46 24.48708 113.73898 23339 ft 384 kts 192°
2026-04-26 04:46 24.46067 113.73453 23077 ft 383 kts 192°
2026-04-26 04:47 24.43441 113.73005 22814 ft 381 kts 192°
2026-04-26 04:47 24.40826 113.72560 22546 ft 379 kts 192°
2026-04-26 04:47 24.38225 113.72120 22300 ft 377 kts 192°
2026-04-26 04:47 24.35670 113.71691 22054 ft 376 kts 192°
2026-04-26 04:48 24.30498 113.70833 21551 ft 372 kts 191°
2026-04-26 04:48 24.27945 113.70406 21302 ft 370 kts 192°
2026-04-26 04:48 24.25434 113.69979 21062 ft 370 kts 192°
2026-04-26 04:49 24.22813 113.69525 20820 ft 381 kts 191°
2026-04-26 04:49 24.20138 113.69059 20581 ft 399 kts 191°
2026-04-26 04:49 24.17405 113.68588 20341 ft 405 kts 191°
2026-04-26 04:49 24.14614 113.68116 20103 ft 406 kts 191°
2026-04-26 04:50 24.11826 113.67651 19871 ft 407 kts 191°
2026-04-26 04:50 24.08961 113.67170 19636 ft 422 kts 191°
2026-04-26 04:50 24.06042 113.66676 19401 ft 425 kts 191°
2026-04-26 04:50 24.03117 113.66182 19169 ft 425 kts 191°
2026-04-26 04:51 24.00197 113.65687 18943 ft 424 kts 190°
2026-04-26 04:51 23.97281 113.65195 18717 ft 423 kts 190°
2026-04-26 04:51 23.94378 113.64710 18492 ft 422 kts 190°
2026-04-26 04:51 23.91486 113.64227 18263 ft 420 kts 190°
2026-04-26 04:52 23.88600 113.63742 18002 ft 419 kts 190°
2026-04-26 04:52 23.85661 113.63247 17743 ft 435 kts 190°
2026-04-26 04:52 23.82656 113.62736 17478 ft 438 kts 190°
2026-04-26 04:52 23.79709 113.61913 17222 ft 436 kts 201°
2026-04-26 04:53 23.77005 113.60453 16971 ft 433 kts 213°
2026-04-26 04:53 23.74457 113.58706 16726 ft 432 kts 213°
2026-04-26 04:53 23.71908 113.56968 16475 ft 431 kts 213°
2026-04-26 04:53 23.69366 113.55243 16234 ft 430 kts 212°
2026-04-26 04:54 23.66827 113.53527 15985 ft 429 kts 212°
2026-04-26 04:54 23.64301 113.51819 15741 ft 423 kts 213°
2026-04-26 04:54 23.61847 113.50156 15500 ft 409 kts 213°
2026-04-26 04:54 23.59392 113.48680 15260 ft 395 kts 204°
2026-04-26 04:55 23.56854 113.47795 15023 ft 372 kts 195°
2026-04-26 04:55 23.54409 113.47133 14789 ft 351 kts 195°
2026-04-26 04:55 23.52100 113.46507 14554 ft 335 kts 195°
2026-04-26 04:55 23.49871 113.45902 14323 ft 322 kts 195°
2026-04-26 04:56 23.47738 113.45323 14092 ft 312 kts 195°
2026-04-26 04:56 23.45638 113.44756 13866 ft 310 kts 195°
2026-04-26 04:56 23.43547 113.44191 13617 ft 310 kts 195°
2026-04-26 04:56 23.41465 113.43628 13362 ft 308 kts 195°
2026-04-26 04:57 23.39388 113.43062 13104 ft 307 kts 195°
2026-04-26 04:57 23.37325 113.42503 12862 ft 305 kts 195°
2026-04-26 04:57 23.35267 113.41948 12605 ft 304 kts 195°
2026-04-26 04:57 23.33248 113.41402 12359 ft 303 kts 195°
2026-04-26 04:58 23.31206 113.40846 12114 ft 302 kts 195°
2026-04-26 04:58 23.29170 113.40291 11867 ft 301 kts 195°
2026-04-26 04:58 23.27140 113.39738 11626 ft 300 kts 195°
2026-04-26 04:58 23.25116 113.39190 11375 ft 299 kts 195°
2026-04-26 04:59 23.23096 113.38642 11143 ft 299 kts 195°
2026-04-26 04:59 23.21076 113.38098 10791 ft 301 kts 195°
2026-04-26 04:59 23.19035 113.37547 10329 ft 303 kts 195°
2026-04-26 04:59 23.17011 113.37001 9854 ft 297 kts 195°
2026-04-26 05:00 23.15017 113.36464 9340 ft 293 kts 195°
2026-04-26 05:00 23.13078 113.35943 8831 ft 281 kts 195°
2026-04-26 05:00 23.11215 113.35440 8329 ft 271 kts 195°
2026-04-26 05:00 23.09412 113.34955 7856 ft 263 kts 195°
2026-04-26 05:01 23.07660 113.34484 7376 ft 256 kts 194°
2026-04-26 05:01 23.05954 113.34027 6904 ft 249 kts 194°
2026-04-26 05:01 23.04290 113.33579 6435 ft 243 kts 194°
2026-04-26 05:01 23.02665 113.33140 5932 ft 238 kts 195°
2026-04-26 05:02 23.01216 113.32395 5602 ft 234 kts 219°
2026-04-26 05:02 23.00195 113.31043 5479 ft 234 kts 245°
2026-04-26 05:02 22.99841 113.29329 5357 ft 236 kts 272°
2026-04-26 05:02 23.00252 113.27616 5236 ft 238 kts 299°
2026-04-26 05:03 23.01353 113.26291 5110 ft 239 kts 326°
2026-04-26 05:03 23.02364 113.25758 5032 ft 240 kts 340°
2026-04-26 05:03 23.03917 113.25145 4913 ft 241 kts 340°
2026-04-26 05:03 23.05506 113.24520 4919 ft 240 kts 339°
2026-04-26 05:04 23.07060 113.23906 4928 ft 241 kts 339°
2026-04-26 05:04 23.08695 113.23504 4926 ft 242 kts 355°
2026-04-26 05:04 23.10365 113.23594 4663 ft 240 kts 12°
2026-04-26 05:04 23.11984 113.24031 4337 ft 240 kts 14°
2026-04-26 05:05 23.13601 113.24472 4013 ft 239 kts 14°
2026-04-26 05:05 23.15202 113.24905 3893 ft 237 kts 14°
2026-04-26 05:05 23.16814 113.25339 3869 ft 240 kts 13°
2026-04-26 05:05 23.18434 113.25776 3636 ft 239 kts 14°
2026-04-26 05:06 23.20041 113.26210 3351 ft 237 kts 14°
2026-04-26 05:06 23.21636 113.26639 3075 ft 234 kts 14°
2026-04-26 05:06 23.23201 113.27061 2760 ft 230 kts 13°
2026-04-26 05:06 23.24738 113.27474 2454 ft 226 kts 14°
2026-04-26 05:07 23.26240 113.27879 2153 ft 217 kts 14°
2026-04-26 05:07 23.27650 113.28260 1906 ft 200 kts 14°
2026-04-26 05:07 23.28952 113.28611 1650 ft 187 kts 14°
2026-04-26 05:07 23.30176 113.28941 1401 ft 174 kts 14°
2026-04-26 05:08 23.31302 113.29244 1194 ft 160 kts 14°
2026-04-26 05:08 23.32364 113.29532 1005 ft 155 kts 15°
2026-04-26 05:08 23.33393 113.29810 772 ft 151 kts 14°
2026-04-26 05:08 23.34403 113.30084 580 ft 148 kts 13°
2026-04-26 05:09 23.35400 113.30353 395 ft 147 kts 14°
2026-04-26 05:09 23.36389 113.30618 209 ft 146 kts 13°
2026-04-26 05:09 23.37369 113.30882 73 ft 142 kts 14°
2026-04-26 05:09 23.38203 113.31107 51 ft 101 kts 14°
2026-04-26 05:10 23.38713 113.31244 53 ft 55 kts 14°
2026-04-26 05:10 23.38987 113.31302 53 ft 29 kts 355°
2026-04-26 05:10 23.39154 113.31264 58 ft 15 kts 346°
2026-04-26 05:10 23.39220 113.31246 56 ft 6 kts 346°
2026-04-26 05:11 23.39267 113.31234 54 ft 8 kts 346°
2026-04-26 05:11 23.39327 113.31218 55 ft 10 kts 349°
2026-04-26 05:11 23.39398 113.31230 56 ft 11 kts 14°
2026-04-26 05:11 23.39479 113.31252 55 ft 13 kts 14°
2026-04-26 05:12 23.39571 113.31277 57 ft 14 kts 13°
2026-04-26 05:12 23.39674 113.31304 55 ft 16 kts 14°
2026-04-26 05:12 23.39748 113.31263 57 ft 12 kts 264°
2026-04-26 05:12 23.39768 113.31175 59 ft 13 kts 286°
2026-04-26 05:13 23.39794 113.31074 58 ft 15 kts 284°
2026-04-26 05:13 23.39824 113.30966 56 ft 15 kts 311°
2026-04-26 05:13 23.39928 113.30970 55 ft 16 kts 14°
2026-04-26 05:13 23.40041 113.31001 56 ft 18 kts 14°
2026-04-26 05:14 23.40164 113.31023 56 ft 16 kts 341°
2026-04-26 05:14 23.40201 113.30916 58 ft 16 kts 283°
2026-04-26 05:14 23.40234 113.30794 53 ft 18 kts 286°
2026-04-26 05:14 23.40263 113.30662 55 ft 10 kts 284°
2026-04-26 05:15 23.40260 113.30617 52 ft 5 kts 219°
2026-04-26 05:15 23.40227 113.30604 52 ft 2 kts 195°
2026-04-26 05:15 23.40221 113.30602 53 ft 0 kts 195°